Home > Weather > Davis > Past weeks

Flag for USA Past Weather in Davis, California, USA — Yesterday and Last 2 Weeks

Now
65 °F

Sunny.


Feels Like: 65 °F
Forecast: 59 / 101 °F
Wind: 6 mph from East

Location: Sacramento International Airport

Current Time: Jun 30, 2016 at 9:05:49 AM

Latest Report: Jun 30, 2016 at 7:53 AM


Visibility: 9 mi

Pressure: 29.85 "Hg

Humidity: 70%

Dew Point: 55 °F

Location of DavisLocation

Past Weather in Davis — Graph

°F

Davis Temperature Yesterday

Maximum temperature yesterday: 97 °F (at 3:53 PM)
Minimum temperature yesterday: 61 °F (at 4:53 AM)
Average temperature yesterday: 77 °F

High & Low Weather Summary for the Past Weeks

 TemperatureHumidityPressure
High103 °F (Jun 27, 3:53 PM)93% (Jun 25, 4:53 AM)30.19 "Hg (Jun 25, 4:53 AM)
Low52 °F (Jun 16, 1:53 AM)12% (Jun 27, 3:53 PM)29.79 "Hg (Jun 29, 5:53 PM)
Average75 °F46%29.95 "Hg
* Reported Jun 15 7:53 AM — Jun 30 7:53 AM, Davis, Weather by CustomWeather, © 2016

Note: Actual official high and low records may vary slightly from our data, if they occured in-between our weather recording intervals... More about our weather records

Advertising

Davis Weather History for the Previous 24 Hours

Scroll right to see more
 ConditionsComfort  
Time TempWeatherWind HumidityBarometerVisibility
7:53 AM
Thu, Jun 30
65 °FSunny.6 mph70%29.85 "Hg9 mi
6:53 AM60 °FSunny.3 mph80%29.84 "Hg10 mi
5:53 AM57 °FPassing clouds.No wind83%29.82 "Hg10 mi
4:53 AM59 °FClear.5 mph78%29.82 "Hg10 mi
3:53 AM61 °FClear.8 mph75%29.81 "Hg10 mi
2:53 AM61 °FClear.8 mph72%29.81 "Hg10 mi
1:53 AM62 °FClear.7 mph73%29.81 "Hg10 mi
12:53 AM64 °FClear.8 mph68%29.81 "Hg10 mi
11:53 PM
Wed, Jun 29
65 °FClear.12 mph66%29.81 "Hg10 mi
10:53 PM68 °FClear.9 mph59%29.81 "Hg10 mi
9:53 PM70 °FClear.12 mph57%29.81 "Hg10 mi
8:53 PM74 °FSunny.15 mph52%29.80 "Hg10 mi
7:53 PM82 °FSunny.14 mph44%29.80 "Hg10 mi
6:53 PM88 °FSunny.13 mph36%29.79 "Hg10 mi
5:53 PM93 °FSunny.13 mph27%29.79 "Hg10 mi
4:53 PM95 °FSunny.14 mph26%29.80 "Hg10 mi
3:53 PM97 °FSunny.10 mph25%29.82 "Hg10 mi
2:53 PM96 °FSunny.6 mph23%29.84 "Hg10 mi
1:53 PM93 °FSunny.7 mph30%29.85 "Hg10 mi
12:53 PM91 °FSunny.9 mph33%29.87 "Hg10 mi
11:53 AM87 °FSunny.8 mph35%29.88 "Hg10 mi
10:53 AM82 °FSunny.9 mph41%29.89 "Hg10 mi
9:53 AM76 °FSunny.5 mph48%29.90 "Hg10 mi
Weather by CustomWeather, © 2016

See weather overviewHow to use our weather pages